ETD456 KIAD-OMAA

Flight info

Callsign ETD456
Flight time N/A
Altitude 29000
Route JCOBY4 SWANN DCT BROSS Q419 RBV Q22 FOXWD DCT WITCH DCT ALLEX N565B TUDEP/M082F290 NATT NETKI/N0479F290 DCT CON DCT MORAG DCT NUCHU DCT BOGNA UL612 XAMAB DCT VEULE DCT INPAX DCT RESMI DCT ODEBU DCT OGULO DCT OKASI DCT OKEKO DCT MOU DCT MADIV DCT MOKIP DCT TUFTA DCT KOGAS DCT MEDAM DCT NITAM DCT MOGBO DCT BELIX DCT SALUN N705 MMA P751 DASUM Y234 FYM M872 BDB Y214 RAPMA DCT KUVSO DCT KATIT DCT DANUX DCT TANSU G783 VAVIM P899 ROVOS
Aircraft B77W/H-SDE1E2E3FGHIJ2J3J4J5M1RWXY/LB1D1

Departure

Time N/A
Airport Washington Dulles International Airport (KIAD)

Arrival

Time 2026-05-06 13:55
Airport Zayed International Airport (OMAA)
Time Latitude Longitude Altitude Speed Heading
2026-05-06 10:03 33.54181 24.94041 35154 ft 500 kts 140°
2026-05-06 10:04 33.48972 24.99572 35152 ft 500 kts 140°
2026-05-06 10:04 33.43759 25.05098 35149 ft 501 kts 140°
2026-05-06 10:05 33.38541 25.10620 35155 ft 501 kts 140°
2026-05-06 10:05 33.33311 25.16146 35150 ft 502 kts 140°
2026-05-06 10:06 33.28075 25.21669 35153 ft 502 kts 140°
2026-05-06 10:06 33.22832 25.27190 35155 ft 502 kts 140°
2026-05-06 10:07 33.17586 25.32704 35155 ft 502 kts 140°
2026-05-06 10:07 33.12337 25.38213 35153 ft 503 kts 140°
2026-05-06 10:08 33.07077 25.43724 35157 ft 503 kts 140°
2026-05-06 10:08 33.01811 25.49232 35139 ft 504 kts 140°
2026-05-06 10:09 32.96576 25.54700 35151 ft 504 kts 140°
2026-05-06 10:09 32.91271 25.60231 35157 ft 504 kts 141°
2026-05-06 10:10 32.86043 25.65672 35156 ft 504 kts 141°
2026-05-06 10:10 32.80760 25.71162 35158 ft 505 kts 141°
2026-05-06 10:11 32.75469 25.76651 35157 ft 505 kts 141°
2026-05-06 10:11 32.70171 25.82139 35145 ft 506 kts 141°
2026-05-06 10:12 32.64868 25.87623 35154 ft 506 kts 141°
2026-05-06 10:12 32.59556 25.93107 35156 ft 506 kts 141°
2026-05-06 10:13 32.54240 25.98586 35152 ft 507 kts 141°
2026-05-06 10:13 32.48915 26.04065 35157 ft 507 kts 141°
2026-05-06 10:14 32.43586 26.09540 35158 ft 507 kts 141°
2026-05-06 10:14 32.38250 26.15013 35145 ft 508 kts 141°
2026-05-06 10:15 32.32913 26.20478 35171 ft 507 kts 141°
2026-05-06 10:15 32.27609 26.25901 35157 ft 507 kts 141°
2026-05-06 10:16 32.22267 26.31354 35162 ft 508 kts 142°
2026-05-06 10:16 32.16920 26.36803 35150 ft 508 kts 142°
2026-05-06 10:17 32.11573 26.42243 35162 ft 508 kts 142°
2026-05-06 10:17 32.06220 26.47680 35149 ft 508 kts 142°
2026-05-06 10:18 32.00870 26.53107 35154 ft 507 kts 142°
2026-05-06 10:18 31.95518 26.58526 35152 ft 507 kts 142°
2026-05-06 10:19 31.90162 26.63940 35156 ft 507 kts 142°
2026-05-06 10:19 31.84804 26.69348 35159 ft 507 kts 142°
2026-05-06 10:20 31.79443 26.74751 35161 ft 508 kts 142°
2026-05-06 10:20 31.74079 26.80148 35140 ft 508 kts 142°
2026-05-06 10:21 31.68715 26.85537 35158 ft 507 kts 142°
2026-05-06 10:21 31.63349 26.90919 35164 ft 507 kts 142°
2026-05-06 10:22 31.57978 26.96297 35162 ft 508 kts 142°
2026-05-06 10:22 31.52604 27.01671 35160 ft 508 kts 142°
2026-05-06 10:23 31.47224 27.07042 35163 ft 508 kts 142°
2026-05-06 10:23 31.41845 27.12405 35146 ft 508 kts 143°
2026-05-06 10:24 31.36458 27.17768 35165 ft 508 kts 143°
2026-05-06 10:24 31.31376 27.23549 35158 ft 513 kts 133°
2026-05-06 10:25 31.27188 27.30318 35161 ft 515 kts 125°
2026-05-06 10:25 31.23236 27.37312 35160 ft 516 kts 126°
2026-05-06 10:26 31.19234 27.44265 35155 ft 516 kts 126°
2026-05-06 10:26 31.15199 27.51204 35153 ft 516 kts 126°
2026-05-06 10:27 31.11173 27.58084 35147 ft 517 kts 127°
2026-05-06 10:27 31.07063 27.64961 35148 ft 517 kts 127°
2026-05-06 10:28 31.02944 27.71822 35133 ft 517 kts 127°
2026-05-06 10:28 30.98826 27.78690 35142 ft 517 kts 127°
2026-05-06 10:29 30.94711 27.85555 35141 ft 517 kts 127°
2026-05-06 10:29 30.90586 27.92426 35138 ft 518 kts 127°
2026-05-06 10:30 30.86454 27.99295 35138 ft 518 kts 127°
2026-05-06 10:30 30.82318 28.06159 35144 ft 518 kts 127°
2026-05-06 10:31 30.78173 28.13024 35135 ft 519 kts 127°
2026-05-06 10:31 30.74020 28.19892 35130 ft 519 kts 127°
2026-05-06 10:32 30.69869 28.26744 35128 ft 519 kts 127°
2026-05-06 10:32 30.65712 28.33594 35127 ft 518 kts 127°
2026-05-06 10:33 30.61554 28.40436 35122 ft 518 kts 128°
2026-05-06 10:33 30.57390 28.47273 35120 ft 519 kts 128°
2026-05-06 10:34 30.53218 28.54112 35121 ft 520 kts 128°
2026-05-06 10:34 30.49036 28.60957 35133 ft 520 kts 128°
2026-05-06 10:35 30.44846 28.67804 35127 ft 521 kts 128°
2026-05-06 10:35 30.40651 28.74646 35112 ft 521 kts 128°
2026-05-06 10:36 30.36451 28.81486 35128 ft 521 kts 128°
2026-05-06 10:36 30.32278 28.88269 35123 ft 521 kts 128°
2026-05-06 10:37 30.28075 28.95090 35125 ft 521 kts 128°
2026-05-06 10:37 30.23868 29.01909 35106 ft 520 kts 128°
2026-05-06 10:38 30.19666 29.08707 35113 ft 520 kts 128°
2026-05-06 10:38 30.15452 29.15504 35115 ft 521 kts 128°
2026-05-06 10:39 30.11233 29.22315 35119 ft 522 kts 128°
2026-05-06 10:39 30.07073 29.29197 35124 ft 523 kts 127°
2026-05-06 10:40 30.03629 29.34940 35112 ft 524 kts 127°
2026-05-06 10:40 29.99475 29.41838 35115 ft 523 kts 127°
2026-05-06 10:41 29.95308 29.48723 35113 ft 523 kts 127°
2026-05-06 10:41 29.91138 29.55596 35116 ft 523 kts 127°
2026-05-06 10:42 29.86972 29.62450 35118 ft 522 kts 128°
2026-05-06 10:42 29.82805 29.69295 35118 ft 521 kts 128°
2026-05-06 10:43 29.78642 29.76124 35113 ft 521 kts 128°
2026-05-06 10:44 29.72397 29.86346 35122 ft 520 kts 128°
2026-05-06 10:44 29.68233 29.93148 35115 ft 520 kts 128°
2026-05-06 10:45 29.64067 29.99941 35120 ft 520 kts 128°
2026-05-06 10:45 29.59903 30.06720 35119 ft 520 kts 128°
2026-05-06 10:46 29.55730 30.13502 35110 ft 520 kts 128°
2026-05-06 10:46 29.51554 30.20280 35117 ft 520 kts 128°
2026-05-06 10:47 29.47376 30.27049 35117 ft 519 kts 128°
2026-05-06 10:47 29.43198 30.33810 35121 ft 519 kts 128°
2026-05-06 10:48 29.38901 30.40457 35096 ft 517 kts 134°
2026-05-06 10:48 29.33960 30.46406 35117 ft 515 kts 138°
2026-05-06 10:49 29.28934 30.52282 35124 ft 517 kts 138°
2026-05-06 10:49 29.23922 30.58196 35127 ft 518 kts 137°
2026-05-06 10:50 29.18918 30.64139 35123 ft 519 kts 137°
2026-05-06 10:50 29.13940 30.70050 35124 ft 519 kts 137°
2026-05-06 10:51 29.08925 30.75994 35123 ft 519 kts 137°
2026-05-06 10:51 29.03907 30.81928 35108 ft 519 kts 137°
2026-05-06 10:52 28.98887 30.87855 35119 ft 519 kts 137°
2026-05-06 10:52 28.93863 30.93778 35131 ft 520 kts 137°
2026-05-06 10:53 28.88827 30.99706 35127 ft 520 kts 137°
2026-05-06 10:53 28.83786 31.05632 35130 ft 521 kts 137°
2026-05-06 10:54 28.78739 31.11558 35122 ft 521 kts 137°
2026-05-06 10:54 28.73688 31.17480 35121 ft 521 kts 137°
2026-05-06 10:55 28.68650 31.23399 35099 ft 521 kts 136°
2026-05-06 10:55 28.63769 31.29507 35116 ft 521 kts 135°
2026-05-06 10:56 28.58953 31.35674 35123 ft 521 kts 135°
2026-05-06 10:56 28.54108 31.41820 35130 ft 522 kts 135°
2026-05-06 10:57 28.49235 31.47945 35128 ft 522 kts 135°
2026-05-06 10:57 28.44355 31.54059 35120 ft 522 kts 136°
2026-05-06 10:58 28.39479 31.60162 35120 ft 521 kts 136°
2026-05-06 10:58 28.34605 31.66257 35112 ft 521 kts 136°
2026-05-06 10:59 28.29739 31.72334 35095 ft 520 kts 135°
2026-05-06 10:59 28.24874 31.78400 35111 ft 520 kts 136°
2026-05-06 11:00 28.20002 31.84465 35121 ft 520 kts 136°
2026-05-06 11:00 28.15121 31.90534 35108 ft 521 kts 136°
2026-05-06 11:01 28.10235 31.96603 35086 ft 521 kts 136°
2026-05-06 11:01 28.05392 32.02643 35100 ft 522 kts 133°
2026-05-06 11:02 28.01162 32.09358 35081 ft 527 kts 121°
2026-05-06 11:02 27.97694 32.16656 35083 ft 526 kts 120°
2026-05-06 11:03 27.94250 32.23949 35059 ft 525 kts 121°
2026-05-06 11:03 27.90770 32.31204 35028 ft 524 kts 121°
2026-05-06 11:04 27.87272 32.38432 35027 ft 524 kts 121°
2026-05-06 11:04 27.83769 32.45651 35020 ft 524 kts 121°
2026-05-06 11:05 27.80261 32.52875 35017 ft 525 kts 121°
2026-05-06 11:05 27.76747 32.60103 35013 ft 525 kts 121°
2026-05-06 11:06 27.73229 32.67327 35020 ft 525 kts 121°
2026-05-06 11:06 27.69705 32.74551 35022 ft 526 kts 121°
2026-05-06 11:07 27.66173 32.81778 35010 ft 526 kts 121°
2026-05-06 11:07 27.62638 32.88999 35001 ft 526 kts 121°
2026-05-06 11:08 27.59102 32.96212 35013 ft 525 kts 122°
2026-05-06 11:08 27.55565 33.03413 35014 ft 525 kts 122°
2026-05-06 11:09 27.52028 33.10601 35009 ft 524 kts 122°
2026-05-06 11:09 27.48494 33.17774 35006 ft 523 kts 122°
2026-05-06 11:10 27.44961 33.24931 35013 ft 522 kts 122°
2026-05-06 11:10 27.41429 33.32075 35013 ft 522 kts 122°
2026-05-06 11:11 27.37897 33.39207 35013 ft 521 kts 122°
2026-05-06 11:11 27.34365 33.46327 34990 ft 521 kts 122°
2026-05-06 11:12 27.30829 33.53448 35013 ft 522 kts 122°
2026-05-06 11:12 27.27281 33.60582 35018 ft 523 kts 122°
2026-05-06 11:13 27.23745 33.67684 35015 ft 525 kts 122°
2026-05-06 11:13 27.20174 33.74845 35016 ft 525 kts 122°
2026-05-06 11:14 27.16793 33.82130 35019 ft 528 kts 115°
2026-05-06 11:14 27.14093 33.89806 35025 ft 529 kts 114°
2026-05-06 11:15 27.11422 33.97490 35002 ft 528 kts 114°
2026-05-06 11:15 27.08705 34.05137 35008 ft 527 kts 115°
2026-05-06 11:16 27.05971 34.12762 35005 ft 526 kts 115°
2026-05-06 11:16 27.03242 34.20372 34999 ft 526 kts 115°
2026-05-06 11:17 27.00515 34.27975 35001 ft 525 kts 115°
2026-05-06 11:17 26.97795 34.35565 34993 ft 524 kts 115°
2026-05-06 11:18 26.95073 34.43148 34991 ft 524 kts 115°
2026-05-06 11:18 26.92351 34.50717 34986 ft 523 kts 116°
2026-05-06 11:19 26.89627 34.58275 34978 ft 523 kts 116°
2026-05-06 11:19 26.86900 34.65827 34977 ft 523 kts 116°
2026-05-06 11:20 26.84188 34.73320 34988 ft 523 kts 116°
2026-05-06 11:20 26.81456 34.80860 34980 ft 523 kts 116°
2026-05-06 11:21 26.78719 34.88398 34961 ft 523 kts 116°
2026-05-06 11:21 26.75977 34.95928 34973 ft 522 kts 116°
2026-05-06 11:22 26.73224 35.03447 34967 ft 522 kts 117°
2026-05-06 11:22 26.70466 35.10959 34968 ft 522 kts 117°
2026-05-06 11:23 26.67707 35.18469 34963 ft 522 kts 117°
2026-05-06 11:23 26.64943 35.25979 34941 ft 522 kts 117°
2026-05-06 11:24 26.62179 35.33477 34952 ft 522 kts 117°
2026-05-06 11:24 26.59411 35.40972 34952 ft 521 kts 117°
2026-05-06 11:25 26.56640 35.48459 34956 ft 521 kts 117°
2026-05-06 11:25 26.53819 35.55913 34948 ft 521 kts 118°
2026-05-06 11:26 26.50963 35.63336 34952 ft 520 kts 118°
2026-05-06 11:26 26.48591 35.69502 34950 ft 520 kts 118°
2026-05-06 11:27 26.45740 35.76924 34933 ft 520 kts 119°
2026-05-06 11:27 26.42893 35.84336 34938 ft 519 kts 119°
2026-05-06 11:28 26.40042 35.91742 34943 ft 520 kts 119°
2026-05-06 11:28 26.37184 35.99150 34940 ft 520 kts 119°
2026-05-06 11:29 26.34318 36.06564 34941 ft 521 kts 119°
2026-05-06 11:29 26.31448 36.13979 34940 ft 521 kts 119°
2026-05-06 11:30 26.28573 36.21391 34937 ft 521 kts 119°
2026-05-06 11:30 26.25694 36.28801 34934 ft 521 kts 120°
2026-05-06 11:31 26.22812 36.36206 34942 ft 521 kts 120°
2026-05-06 11:31 26.19928 36.43606 34940 ft 521 kts 120°
2026-05-06 11:32 26.16937 36.50931 34927 ft 516 kts 125°
2026-05-06 11:32 26.13518 36.57866 34932 ft 514 kts 126°
2026-05-06 11:33 26.10015 36.64866 34926 ft 515 kts 126°
2026-05-06 11:33 26.06580 36.71792 34928 ft 515 kts 126°
2026-05-06 11:34 26.03135 36.78777 34908 ft 515 kts 126°
2026-05-06 11:34 25.99690 36.85756 34918 ft 515 kts 126°
2026-05-06 11:35 25.96241 36.92726 34923 ft 515 kts 126°
2026-05-06 11:35 25.92785 36.99697 34912 ft 515 kts 126°
2026-05-06 11:36 25.89326 37.06663 34900 ft 515 kts 126°
2026-05-06 11:36 25.85862 37.13631 34904 ft 515 kts 126°
2026-05-06 11:37 25.82397 37.20592 34909 ft 515 kts 126°
2026-05-06 11:37 25.78928 37.27551 34906 ft 515 kts 126°
2026-05-06 11:38 25.75465 37.34503 34915 ft 515 kts 126°
2026-05-06 11:38 25.72002 37.41451 34904 ft 515 kts 126°
2026-05-06 11:39 25.68535 37.48396 34903 ft 516 kts 126°
2026-05-06 11:39 25.65052 37.55359 34916 ft 517 kts 126°
2026-05-06 11:40 25.61561 37.62333 34912 ft 517 kts 126°
2026-05-06 11:40 25.58069 37.69297 34928 ft 517 kts 126°
2026-05-06 11:41 25.54593 37.76216 34905 ft 518 kts 126°
2026-05-06 11:41 25.51092 37.83178 34894 ft 517 kts 126°
2026-05-06 11:42 25.47589 37.90133 34898 ft 517 kts 126°
2026-05-06 11:42 25.44089 37.97067 34879 ft 516 kts 127°
2026-05-06 11:43 25.40590 38.03990 34893 ft 515 kts 127°
2026-05-06 11:43 25.37096 38.10897 34872 ft 514 kts 127°
2026-05-06 11:44 25.31872 38.21206 34890 ft 512 kts 127°
2026-05-06 11:44 25.28375 38.28079 34892 ft 514 kts 127°
2026-05-06 11:45 25.24862 38.34983 34897 ft 517 kts 127°
2026-05-06 11:45 25.21330 38.41920 34904 ft 519 kts 127°
2026-05-06 11:46 25.17785 38.48872 34902 ft 520 kts 127°
2026-05-06 11:46 25.14233 38.55825 34908 ft 520 kts 127°
2026-05-06 11:47 25.10684 38.62765 34872 ft 519 kts 127°
2026-05-06 11:47 25.07140 38.69689 34876 ft 518 kts 127°
2026-05-06 11:48 25.03601 38.76591 34915 ft 517 kts 127°
2026-05-06 11:48 25.00046 38.83516 34915 ft 520 kts 127°
2026-05-06 11:49 24.96478 38.90455 34889 ft 521 kts 128°
2026-05-06 11:49 24.92889 38.97396 34915 ft 522 kts 128°
2026-05-06 11:50 24.89277 39.04341 34926 ft 523 kts 128°
2026-05-06 11:50 24.85687 39.11244 34920 ft 523 kts 128°
2026-05-06 11:51 24.82075 39.18187 34914 ft 522 kts 128°
2026-05-06 11:51 24.78463 39.25117 34924 ft 521 kts 128°
2026-05-06 11:52 24.74856 39.32032 34929 ft 521 kts 128°
2026-05-06 11:52 24.71251 39.38933 34918 ft 520 kts 128°
2026-05-06 11:53 24.67650 39.45821 34931 ft 519 kts 128°
2026-05-06 11:53 24.64049 39.52693 34939 ft 518 kts 128°
2026-05-06 11:54 24.60443 39.59565 34932 ft 521 kts 128°
2026-05-06 11:54 24.56885 39.66507 34930 ft 525 kts 123°
2026-05-06 11:55 24.54444 39.74185 34937 ft 540 kts 110°
2026-05-06 11:55 24.53391 39.82410 34926 ft 546 kts 101°
2026-05-06 11:56 24.52703 39.90714 34936 ft 546 kts 101°
2026-05-06 11:56 24.51969 39.99010 34941 ft 546 kts 101°
2026-05-06 11:57 24.51171 40.07304 34925 ft 546 kts 102°
2026-05-06 11:57 24.50353 40.15591 34934 ft 546 kts 102°
2026-05-06 11:58 24.49534 40.23891 34942 ft 547 kts 102°
2026-05-06 11:58 24.48721 40.32138 34929 ft 547 kts 102°
2026-05-06 11:59 24.47899 40.40438 34934 ft 547 kts 102°
2026-05-06 11:59 24.47071 40.48742 34922 ft 547 kts 102°
2026-05-06 12:00 24.46239 40.57044 34935 ft 547 kts 102°
2026-05-06 12:00 24.45403 40.65342 34942 ft 547 kts 102°
2026-05-06 12:01 24.44570 40.73645 34958 ft 547 kts 102°
2026-05-06 12:01 24.43733 40.81951 34951 ft 548 kts 102°
2026-05-06 12:02 24.42891 40.90262 34936 ft 548 kts 102°
2026-05-06 12:02 24.42044 40.98563 34933 ft 547 kts 102°
2026-05-06 12:03 24.41194 41.06859 34944 ft 547 kts 102°
2026-05-06 12:03 24.40329 41.15148 34933 ft 547 kts 103°
2026-05-06 12:04 24.39452 41.23425 34949 ft 546 kts 103°
2026-05-06 12:04 24.38573 41.31697 34957 ft 546 kts 103°
2026-05-06 12:05 24.37692 41.39969 34946 ft 546 kts 103°
2026-05-06 12:05 24.36807 41.48236 34961 ft 546 kts 103°
2026-05-06 12:06 24.35918 41.56497 34944 ft 545 kts 103°
2026-05-06 12:06 24.35025 41.64748 34956 ft 545 kts 103°
2026-05-06 12:07 24.34129 41.72989 34969 ft 544 kts 103°
2026-05-06 12:07 24.33206 41.81158 34982 ft 542 kts 105°
2026-05-06 12:08 24.31452 41.89152 34961 ft 533 kts 114°
2026-05-06 12:08 24.29341 41.96880 34960 ft 533 kts 114°
2026-05-06 12:09 24.27236 42.04668 34965 ft 533 kts 113°
2026-05-06 12:09 24.25165 42.12477 34956 ft 534 kts 113°
2026-05-06 12:10 24.23103 42.20291 34954 ft 534 kts 113°
2026-05-06 12:10 24.21032 42.28110 34966 ft 534 kts 113°
2026-05-06 12:11 24.18954 42.35927 34975 ft 535 kts 113°
2026-05-06 12:11 24.16870 42.43744 34962 ft 535 kts 113°
2026-05-06 12:12 24.14782 42.51559 34972 ft 535 kts 113°
2026-05-06 12:12 24.12692 42.59369 34983 ft 534 kts 113°
2026-05-06 12:13 24.10600 42.67167 34977 ft 534 kts 113°
2026-05-06 12:13 24.08507 42.74951 34987 ft 533 kts 113°
2026-05-06 12:14 24.06413 42.82724 34977 ft 532 kts 113°
2026-05-06 12:14 24.04318 42.90484 34976 ft 532 kts 113°
2026-05-06 12:15 24.02577 42.96923 34978 ft 531 kts 113°
2026-05-06 12:15 24.00141 43.05921 34964 ft 530 kts 113°
2026-05-06 12:16 23.98047 43.13647 34968 ft 530 kts 113°
2026-05-06 12:16 23.96290 43.20112 34969 ft 529 kts 113°
2026-05-06 12:17 23.94188 43.27827 34963 ft 529 kts 113°
2026-05-06 12:17 23.92086 43.35531 34969 ft 529 kts 113°
2026-05-06 12:18 23.89980 43.43232 34947 ft 529 kts 113°
2026-05-06 12:18 23.87872 43.50923 34957 ft 528 kts 112°
2026-05-06 12:19 23.85778 43.58548 34952 ft 527 kts 113°
2026-05-06 12:19 23.83670 43.66208 34941 ft 526 kts 112°
2026-05-06 12:20 23.81561 43.73855 34943 ft 526 kts 112°
2026-05-06 12:20 23.79451 43.81494 34935 ft 525 kts 112°
2026-05-06 12:21 23.77515 43.89196 34923 ft 529 kts 106°
2026-05-06 12:21 23.76661 43.97221 34927 ft 534 kts 98°
2026-05-06 12:22 23.76138 44.05322 34907 ft 535 kts 98°
2026-05-06 12:22 23.75578 44.13416 34911 ft 535 kts 99°
2026-05-06 12:23 23.74972 44.21515 34923 ft 536 kts 99°
2026-05-06 12:23 23.74351 44.29621 34919 ft 536 kts 99°
2026-05-06 12:24 23.73729 44.37721 34926 ft 536 kts 99°
2026-05-06 12:24 23.73105 44.45829 34921 ft 536 kts 99°
2026-05-06 12:25 23.72478 44.53927 34942 ft 535 kts 99°
2026-05-06 12:25 23.71848 44.62014 34939 ft 535 kts 99°
2026-05-06 12:26 23.71212 44.70097 34946 ft 534 kts 99°
2026-05-06 12:26 23.70575 44.78167 34953 ft 534 kts 99°
2026-05-06 12:27 23.69933 44.86231 34956 ft 533 kts 99°
2026-05-06 12:27 23.69291 44.94233 34955 ft 533 kts 99°
2026-05-06 12:28 23.68638 45.02291 34953 ft 533 kts 99°
2026-05-06 12:28 23.67981 45.10351 34963 ft 533 kts 99°
2026-05-06 12:29 23.67322 45.18409 34961 ft 533 kts 99°
2026-05-06 12:29 23.66657 45.26467 34952 ft 534 kts 99°
2026-05-06 12:30 23.65991 45.34531 34964 ft 534 kts 99°
2026-05-06 12:30 23.65322 45.42596 34949 ft 534 kts 99°
2026-05-06 12:31 23.64647 45.50666 34945 ft 535 kts 99°
2026-05-06 12:31 23.63968 45.58741 34934 ft 535 kts 99°
2026-05-06 12:32 23.63285 45.66816 34931 ft 534 kts 99°
2026-05-06 12:32 23.62599 45.74883 34925 ft 534 kts 99°
2026-05-06 12:33 23.61910 45.82943 34909 ft 534 kts 99°
2026-05-06 12:33 23.61217 45.91001 34903 ft 533 kts 99°
2026-05-06 12:34 23.60522 45.99045 34910 ft 533 kts 99°
2026-05-06 12:34 23.59822 46.07085 34898 ft 533 kts 99°
2026-05-06 12:35 23.59118 46.15122 34906 ft 533 kts 99°
2026-05-06 12:35 23.58411 46.23158 34901 ft 533 kts 99°
2026-05-06 12:36 23.57703 46.31143 34887 ft 533 kts 99°
2026-05-06 12:36 23.56987 46.39177 34905 ft 532 kts 99°
2026-05-06 12:37 23.56268 46.47203 34910 ft 532 kts 99°
2026-05-06 12:37 23.55543 46.55231 34895 ft 532 kts 99°
2026-05-06 12:38 23.54805 46.63251 34875 ft 532 kts 99°
2026-05-06 12:38 23.54063 46.71262 34864 ft 531 kts 99°
2026-05-06 12:39 23.53318 46.79268 34866 ft 531 kts 99°
2026-05-06 12:39 23.52570 46.87272 34847 ft 531 kts 99°
2026-05-06 12:40 23.51818 46.95275 34835 ft 531 kts 99°
2026-05-06 12:40 23.51062 47.03284 34820 ft 531 kts 99°
2026-05-06 12:41 23.50301 47.11292 34820 ft 532 kts 99°
2026-05-06 12:41 23.49535 47.19310 34818 ft 532 kts 99°
2026-05-06 12:42 23.48765 47.27326 34801 ft 532 kts 99°
2026-05-06 12:42 23.47997 47.35289 34799 ft 532 kts 99°
2026-05-06 12:43 23.47219 47.43301 34790 ft 532 kts 99°
2026-05-06 12:43 23.46438 47.51314 34799 ft 532 kts 99°
2026-05-06 12:44 23.45657 47.59316 34791 ft 531 kts 99°
2026-05-06 12:44 23.44878 47.67312 34782 ft 531 kts 99°
2026-05-06 12:45 23.44095 47.75299 34773 ft 530 kts 99°
2026-05-06 12:46 23.42915 47.87253 34779 ft 529 kts 99°
2026-05-06 12:46 23.42124 47.95205 34764 ft 528 kts 99°
2026-05-06 12:47 23.41331 48.03144 34767 ft 527 kts 99°
2026-05-06 12:47 23.40534 48.11076 34771 ft 527 kts 99°
2026-05-06 12:48 23.39734 48.19011 34758 ft 527 kts 99°
2026-05-06 12:48 23.38930 48.26939 34757 ft 527 kts 99°
2026-05-06 12:49 23.38153 48.34815 34755 ft 527 kts 97°
2026-05-06 12:49 23.37787 48.42782 34763 ft 527 kts 95°
2026-05-06 12:50 23.37517 48.50752 34758 ft 527 kts 94°
2026-05-06 12:50 23.37220 48.58711 34757 ft 526 kts 95°
2026-05-06 12:51 23.36895 48.66668 34750 ft 526 kts 95°
2026-05-06 12:51 23.36562 48.74616 34753 ft 526 kts 95°
2026-05-06 12:52 23.36228 48.82558 34756 ft 525 kts 95°
2026-05-06 12:52 23.35891 48.90498 34739 ft 525 kts 95°
2026-05-06 12:53 23.35551 48.98431 34746 ft 524 kts 95°
2026-05-06 12:53 23.35186 49.06348 34748 ft 523 kts 97°
2026-05-06 12:54 23.34200 49.14165 34745 ft 520 kts 102°
2026-05-06 12:54 23.33027 49.21935 34740 ft 520 kts 102°
2026-05-06 12:55 23.31867 49.29708 34741 ft 521 kts 102°
2026-05-06 12:55 23.30733 49.37489 34739 ft 521 kts 101°
2026-05-06 12:56 23.29605 49.45286 34729 ft 522 kts 101°
2026-05-06 12:56 23.28475 49.53071 34744 ft 521 kts 101°
2026-05-06 12:57 23.27339 49.60852 34735 ft 521 kts 101°
2026-05-06 12:57 23.26206 49.68577 34740 ft 521 kts 101°
2026-05-06 12:58 23.25085 49.76198 34744 ft 520 kts 101°
2026-05-06 12:58 23.23937 49.83969 34739 ft 520 kts 101°
2026-05-06 12:59 23.22785 49.91741 34739 ft 521 kts 101°
2026-05-06 12:59 23.21630 49.99511 34727 ft 521 kts 101°
2026-05-06 13:00 23.20471 50.07279 34739 ft 521 kts 101°
2026-05-06 13:00 23.19308 50.15046 34742 ft 521 kts 101°
2026-05-06 13:01 23.18141 50.22814 34737 ft 521 kts 101°
2026-05-06 13:01 23.16970 50.30578 34736 ft 521 kts 101°
2026-05-06 13:02 23.15795 50.38349 34732 ft 521 kts 101°
2026-05-06 13:02 23.14616 50.46112 34734 ft 521 kts 101°
2026-05-06 13:03 23.13433 50.53881 34729 ft 521 kts 102°
2026-05-06 13:03 23.12255 50.61587 34740 ft 521 kts 102°
2026-05-06 13:04 23.11066 50.69344 34731 ft 520 kts 101°
2026-05-06 13:04 23.09874 50.77094 34733 ft 520 kts 102°
2026-05-06 13:05 23.08678 50.84840 34725 ft 520 kts 102°
2026-05-06 13:05 23.07479 50.92581 34728 ft 520 kts 102°
2026-05-06 13:06 23.06276 51.00323 34722 ft 520 kts 102°
2026-05-06 13:06 23.05068 51.08068 34730 ft 520 kts 102°
2026-05-06 13:07 23.04061 51.14508 34723 ft 520 kts 102°
2026-05-06 13:07 23.02847 51.22249 34718 ft 520 kts 102°
2026-05-06 13:08 23.01628 51.29991 34720 ft 520 kts 102°
2026-05-06 13:08 23.00407 51.37727 34721 ft 520 kts 102°
2026-05-06 13:09 22.99181 51.45466 34723 ft 520 kts 102°
2026-05-06 13:09 22.97951 51.53204 34718 ft 520 kts 102°
2026-05-06 13:10 22.96717 51.60942 34714 ft 520 kts 102°
2026-05-06 13:10 22.95480 51.68680 34720 ft 521 kts 102°
2026-05-06 13:11 22.94237 51.76421 34720 ft 521 kts 102°
2026-05-06 13:11 22.92991 51.84162 34720 ft 521 kts 102°
2026-05-06 13:12 22.91741 51.91904 34719 ft 521 kts 102°
2026-05-06 13:12 22.90486 51.99649 34719 ft 521 kts 102°
2026-05-06 13:13 22.89228 52.07392 34712 ft 521 kts 102°
2026-05-06 13:13 22.87967 52.15132 34721 ft 521 kts 102°
2026-05-06 13:14 22.86700 52.22875 34720 ft 522 kts 102°
2026-05-06 13:14 22.85431 52.30610 34718 ft 521 kts 102°
2026-05-06 13:15 22.84159 52.38344 34714 ft 521 kts 102°
2026-05-06 13:15 22.82893 52.46016 34714 ft 520 kts 102°
2026-05-06 13:16 22.81701 52.53752 34708 ft 521 kts 99°
2026-05-06 13:16 22.80796 52.61535 34715 ft 521 kts 98°
2026-05-06 13:17 22.79929 52.69322 34718 ft 520 kts 98°
2026-05-06 13:17 22.79013 52.77101 34724 ft 520 kts 99°
2026-05-06 13:18 22.78064 52.84873 34722 ft 520 kts 99°
2026-05-06 13:18 22.77108 52.92646 34719 ft 520 kts 99°
2026-05-06 13:19 22.76151 53.00416 34719 ft 520 kts 99°
2026-05-06 13:19 22.75193 53.08178 34720 ft 520 kts 99°
2026-05-06 13:20 22.74231 53.15940 34726 ft 520 kts 99°
2026-05-06 13:20 22.73266 53.23698 34724 ft 520 kts 99°
2026-05-06 13:21 22.72297 53.31461 34724 ft 520 kts 99°
2026-05-06 13:21 22.71324 53.39219 34729 ft 520 kts 99°
2026-05-06 13:22 22.70346 53.46984 34725 ft 520 kts 99°
2026-05-06 13:22 22.69365 53.54745 34713 ft 520 kts 99°
2026-05-06 13:23 22.68381 53.62500 34722 ft 519 kts 99°
2026-05-06 13:23 22.67395 53.70241 34726 ft 519 kts 99°
2026-05-06 13:24 22.66406 53.77968 34727 ft 518 kts 99°
2026-05-06 13:24 22.65414 53.85698 34731 ft 518 kts 99°
2026-05-06 13:25 22.64419 53.93420 34728 ft 518 kts 99°
2026-05-06 13:25 22.63420 54.01141 34726 ft 518 kts 99°
2026-05-06 13:26 22.62424 54.08810 34732 ft 518 kts 99°
2026-05-06 13:26 22.61418 54.16536 34730 ft 519 kts 99°
2026-05-06 13:27 22.60808 54.24290 34721 ft 518 kts 86°
2026-05-06 13:27 22.62300 54.31885 34741 ft 517 kts 67°
2026-05-06 13:28 22.65391 54.38751 34742 ft 516 kts 61°
2026-05-06 13:28 22.68581 54.45722 34735 ft 517 kts 63°
2026-05-06 13:29 22.71673 54.52765 34734 ft 518 kts 63°
2026-05-06 13:29 22.74717 54.59699 34507 ft 502 kts 63°
2026-05-06 13:29 22.76212 54.63101 34067 ft 499 kts 63°
2026-05-06 13:30 22.77697 54.66480 33613 ft 495 kts 63°
2026-05-06 13:30 22.79175 54.69843 33099 ft 492 kts 63°
2026-05-06 13:30 22.80639 54.73178 32630 ft 489 kts 63°
2026-05-06 13:30 22.82093 54.76493 32149 ft 485 kts 63°
2026-05-06 13:31 22.83536 54.79784 31699 ft 482 kts 63°
2026-05-06 13:31 22.84968 54.83055 31242 ft 479 kts 63°
2026-05-06 13:31 22.86389 54.86301 30790 ft 476 kts 63°
2026-05-06 13:31 22.87801 54.89531 30330 ft 473 kts 63°
2026-05-06 13:32 22.89207 54.92749 29864 ft 471 kts 63°
2026-05-06 13:32 22.90606 54.95951 29355 ft 468 kts 63°
2026-05-06 13:32 22.91994 54.99133 28849 ft 465 kts 63°
2026-05-06 13:32 22.93372 55.02292 28365 ft 462 kts 63°
2026-05-06 13:33 22.94739 55.05430 27893 ft 458 kts 64°
2026-05-06 13:33 22.96096 55.08545 27427 ft 455 kts 64°
2026-05-06 13:33 22.97443 55.11639 26958 ft 452 kts 64°
2026-05-06 13:33 22.98781 55.14715 26497 ft 449 kts 64°
2026-05-06 13:34 23.00107 55.17766 26050 ft 446 kts 64°
2026-05-06 13:34 23.01471 55.20763 25577 ft 439 kts 57°
2026-05-06 13:34 23.03405 55.23278 25128 ft 432 kts 38°
2026-05-06 13:34 23.05897 55.25050 24691 ft 426 kts 23°
2026-05-06 13:35 23.08640 55.26055 24256 ft 419 kts 13°
2026-05-06 13:35 23.11457 55.26833 23826 ft 417 kts 12°
2026-05-06 13:35 23.14265 55.27605 23392 ft 416 kts 13°
2026-05-06 13:35 23.17060 55.28385 22882 ft 414 kts 13°
2026-05-06 13:36 23.19835 55.29175 22413 ft 411 kts 14°
2026-05-06 13:36 23.22587 55.29970 21972 ft 408 kts 14°
2026-05-06 13:36 23.25319 55.30767 21538 ft 405 kts 14°
2026-05-06 13:36 23.28026 55.31561 21107 ft 402 kts 15°
2026-05-06 13:37 23.30716 55.32352 20682 ft 399 kts 15°
2026-05-06 13:37 23.33386 55.33137 20261 ft 397 kts 15°
2026-05-06 13:37 23.36044 55.33919 19840 ft 394 kts 15°
2026-05-06 13:37 23.38688 55.34696 19412 ft 392 kts 16°
2026-05-06 13:38 23.41313 55.35469 19053 ft 389 kts 16°
2026-05-06 13:38 23.43904 55.36231 18741 ft 384 kts 16°
2026-05-06 13:38 23.46472 55.36987 18362 ft 382 kts 17°
2026-05-06 13:38 23.49032 55.37701 17947 ft 377 kts 11°
2026-05-06 13:39 23.51647 55.37780 17494 ft 378 kts 353°
2026-05-06 13:39 23.54195 55.37026 16823 ft 385 kts 336°
2026-05-06 13:39 23.56558 55.35672 16292 ft 383 kts 332°
2026-05-06 13:39 23.58885 55.34253 15824 ft 384 kts 332°
2026-05-06 13:40 23.61211 55.32826 15345 ft 383 kts 332°
2026-05-06 13:40 23.63535 55.31404 14875 ft 383 kts 332°
2026-05-06 13:40 23.65862 55.29988 14400 ft 383 kts 332°
2026-05-06 13:40 23.68193 55.28578 13930 ft 383 kts 332°
2026-05-06 13:41 23.70525 55.27170 13439 ft 383 kts 332°
2026-05-06 13:41 23.72854 55.25767 12924 ft 382 kts 332°
2026-05-06 13:41 23.75177 55.24370 12443 ft 381 kts 332°
2026-05-06 13:41 23.77497 55.22976 11977 ft 380 kts 332°
2026-05-06 13:42 23.79809 55.21587 11508 ft 379 kts 332°
2026-05-06 13:42 23.82116 55.20199 11031 ft 378 kts 332°
2026-05-06 13:42 23.84408 55.18820 10783 ft 372 kts 332°
2026-05-06 13:42 23.86646 55.17471 10585 ft 364 kts 332°
2026-05-06 13:43 23.88845 55.16147 10317 ft 358 kts 332°
2026-05-06 13:43 23.91003 55.14846 10147 ft 350 kts 332°
2026-05-06 13:43 23.93115 55.13574 9939 ft 344 kts 333°
2026-05-06 13:43 23.95190 55.12323 9783 ft 336 kts 333°
2026-05-06 13:44 23.97198 55.11111 9702 ft 324 kts 333°
2026-05-06 13:44 23.99124 55.09949 9488 ft 309 kts 333°
2026-05-06 13:44 24.00985 55.08826 9001 ft 302 kts 332°
2026-05-06 13:44 24.02805 55.07729 8325 ft 297 kts 332°
2026-05-06 13:45 24.04613 55.06638 7558 ft 296 kts 332°
2026-05-06 13:45 24.08096 55.04534 6722 ft 277 kts 331°
2026-05-06 13:45 24.09772 55.03522 6412 ft 275 kts 330°
2026-05-06 13:46 24.11422 55.02525 5978 ft 268 kts 330°
2026-05-06 13:46 24.13039 55.01547 5767 ft 261 kts 330°
2026-05-06 13:46 24.14600 55.00603 5628 ft 252 kts 330°
2026-05-06 13:46 24.16101 54.99693 5518 ft 241 kts 330°
2026-05-06 13:47 24.17550 54.98817 5472 ft 237 kts 330°
2026-05-06 13:47 24.18988 54.97946 5311 ft 241 kts 330°
2026-05-06 13:47 24.20475 54.97040 5021 ft 247 kts 328°
2026-05-06 13:47 24.21799 54.95881 4816 ft 240 kts 315°
2026-05-06 13:48 24.22963 54.94602 4683 ft 228 kts 313°
2026-05-06 13:48 24.24028 54.93412 4572 ft 216 kts 314°
2026-05-06 13:48 24.25073 54.92263 4481 ft 214 kts 314°
2026-05-06 13:48 24.26153 54.91090 4445 ft 220 kts 314°
2026-05-06 13:49 24.27229 54.89935 4341 ft 214 kts 314°
2026-05-06 13:49 24.28281 54.88808 4264 ft 209 kts 315°
2026-05-06 13:49 24.29319 54.87698 4173 ft 207 kts 314°
2026-05-06 13:49 24.30314 54.86556 4118 ft 208 kts 310°
2026-05-06 13:50 24.31255 54.85327 3874 ft 211 kts 308°
2026-05-06 13:50 24.32163 54.84068 3620 ft 209 kts 307°
2026-05-06 13:50 24.33052 54.82818 3361 ft 206 kts 307°
2026-05-06 13:50 24.33925 54.81586 3109 ft 204 kts 306°
2026-05-06 13:51 24.34797 54.80355 2881 ft 205 kts 306°
2026-05-06 13:51 24.35668 54.79123 2605 ft 203 kts 306°
2026-05-06 13:51 24.36523 54.77917 2351 ft 197 kts 307°
2026-05-06 13:51 24.37347 54.76753 2113 ft 188 kts 306°
2026-05-06 13:52 24.38116 54.75669 1870 ft 171 kts 307°
2026-05-06 13:52 24.38813 54.74684 1679 ft 160 kts 308°
2026-05-06 13:52 24.39487 54.73729 1524 ft 157 kts 309°
2026-05-06 13:52 24.40164 54.72776 1313 ft 158 kts 310°
2026-05-06 13:53 24.40834 54.71829 1100 ft 156 kts 309°
2026-05-06 13:53 24.41503 54.70882 901 ft 157 kts 308°
2026-05-06 13:53 24.42157 54.69954 737 ft 148 kts 310°
2026-05-06 13:53 24.42553 54.69371 623 ft 140 kts 309°
2026-05-06 13:54 24.43147 54.68553 458 ft 137 kts 310°
2026-05-06 13:54 24.43752 54.67707 298 ft 145 kts 311°
2026-05-06 13:54 24.44380 54.66824 130 ft 147 kts 311°
2026-05-06 13:54 24.44979 54.65981 92 ft 129 kts 308°
2026-05-06 13:55 24.45440 54.65329 92 ft 82 kts 308°
2026-05-06 13:55 24.45604 54.65075 90 ft 29 kts 293°
2026-05-06 13:55 24.45641 54.64923 90 ft 18 kts 279°
2026-05-06 13:55 24.45652 54.64830 95 ft 7 kts 278°
2026-05-06 13:56 24.45659 54.64777 93 ft 7 kts 278°
2026-05-06 13:56 24.45670 54.64716 96 ft 9 kts 284°
2026-05-06 13:56 24.45694 54.64665 96 ft 7 kts 304°
2026-05-06 13:56 24.45704 54.64614 98 ft 7 kts 246°
2026-05-06 13:57 24.45666 54.64578 98 ft 7 kts 200°
2026-05-06 13:57 24.45620 54.64605 96 ft 8 kts 130°
2026-05-06 13:57 24.45581 54.64664 99 ft 10 kts 126°
2026-05-06 13:57 24.45531 54.64737 98 ft 14 kts 128°
2026-05-06 13:58 24.45470 54.64823 99 ft 14 kts 128°
2026-05-06 13:58 24.45408 54.64909 98 ft 14 kts 128°
2026-05-06 13:58 24.45347 54.64996 99 ft 14 kts 128°
2026-05-06 13:58 24.45285 54.65083 98 ft 16 kts 127°
2026-05-06 13:59 24.45215 54.65183 98 ft 17 kts 127°
2026-05-06 13:59 24.45142 54.65284 98 ft 17 kts 128°
2026-05-06 13:59 24.45069 54.65389 98 ft 18 kts 127°
2026-05-06 13:59 24.45009 54.65473 99 ft 9 kts 128°
2026-05-06 14:00 24.44990 54.65499 96 ft 0 kts 128°
2026-05-06 14:01 24.44985 54.65505 96 ft 5 kts 128°
2026-05-06 14:01 24.44939 54.65553 98 ft 11 kts 165°
2026-05-06 14:01 24.44872 54.65520 99 ft 12 kts 217°
2026-05-06 14:02 24.44804 54.65459 97 ft 14 kts 219°
2026-05-06 14:02 24.44727 54.65393 99 ft 14 kts 216°
2026-05-06 14:02 24.44647 54.65329 100 ft 14 kts 217°
2026-05-06 14:02 24.44570 54.65261 101 ft 14 kts 218°
2026-05-06 14:03 24.44497 54.65197 100 ft 11 kts 223°
2026-05-06 14:03 24.44496 54.65126 99 ft 10 kts 301°
2026-05-06 14:03 24.44543 54.65062 97 ft 12 kts 309°
2026-05-06 14:03 24.44595 54.64992 99 ft 12 kts 308°
2026-05-06 14:04 24.44646 54.64920 97 ft 12 kts 308°
2026-05-06 14:04 24.44706 54.64870 100 ft 10 kts
2026-05-06 14:04 24.44774 54.64870 99 ft 10 kts 321°
2026-05-06 14:04 24.44818 54.64807 100 ft 11 kts 308°
2026-05-06 14:05 24.44863 54.64741 99 ft 13 kts 306°
2026-05-06 14:05 24.44908 54.64651 97 ft 14 kts 292°
2026-05-06 14:05 24.44929 54.64554 100 ft 12 kts 278°
2026-05-06 14:05 24.44955 54.64507 99 ft 6 kts 339°
2026-05-06 14:06 24.44997 54.64510 99 ft 6 kts
2026-05-06 14:06 24.45018 54.64513 98 ft 2 kts
2026-05-06 14:06 24.45028 54.64514 100 ft 1 kts
2026-05-06 14:06 24.45030 54.64515 100 ft 0 kts